START_TIME,STEP,MOV.,AL01,t_acc.,AL02,t_acc.,E37,t_acc.,H21,t_acc.
1980-11-15 03:00:22.880 ,3,0,0.,24.0,0.,24.0,0.,24.0,0.,24.0
1980-11-15 03:00:46.880 ,2,1,0.,24.0,0.,24.0,0.,24.0,0.,24.0
1980-11-15 03:01:10.880 ,2,0,0.,24.0,0.,24.0,1.,24.0,0.,24.0
1980-11-15 03:01:34.880 ,1,1,0.,24.0,0.,24.0,1.,24.0,0.,24.0
1980-11-15 03:01:58.880 ,1,0,0.,24.0,0.,24.0,0.,24.0,0.,24.0
1980-11-15 03:02:22.880 ,0,1,0.,24.0,0.,24.0,0.,24.0,0.,24.0
1980-11-15 03:02:46.880 ,0,0,0.,24.0,0.,24.0,2.,24.0,0.,24.0
1980-11-15 03:03:10.880 ,0,1,0.,24.0,0.,24.0,0.,24.0,0.,24.0
1980-11-15 03:03:34.880 ,0,0,0.,24.0,0.,24.0,0.,24.0,0.,24.0
1980-11-15 03:03:58.880 ,1,1,0.,24.0,0.,24.0,1.,24.0,0.,24.0
1980-11-15 03:04:22.880 ,1,0,0.,24.0,0.,24.0,0.,24.0,0.,24.0
1980-11-15 03:04:46.880 ,2,1,0.,24.0,0.,24.0,1.,24.0,0.,24.0
1980-11-15 03:05:10.880 ,2,0,0.,24.0,0.,24.0,0.,24.0,0.,24.0
1980-11-15 03:05:34.880 ,3,1,0.,24.0,0.,24.0,1.,24.0,0.,24.0
1980-11-15 03:05:58.880 ,3,0,0.,24.0,0.,24.0,1.,24.0,0.,24.0
1980-11-15 03:06:22.880 ,4,1,0.,24.0,0.,24.0,2.,24.0,0.,24.0
1980-11-15 03:06:46.880 ,4,0,0.,24.0,0.,24.0,2.,24.0,0.,24.0
1980-11-15 03:07:10.880 ,5,1,0.,24.0,0.,24.0,0.,24.0,0.,24.0
1980-11-15 03:07:34.880 ,5,0,0.,24.0,0.,24.0,0.,24.0,0.,24.0
1980-11-15 03:07:58.880 ,6,1,0.,24.0,0.,24.0,0.,24.0,0.,24.0
1980-11-15 03:08:22.880 ,6,0,0.,24.0,0.,24.0,0.,24.0,0.,24.0
1980-11-15 03:08:46.880 ,7,1,2.,24.0,0.,24.0,0.,24.0,0.,24.0
1980-11-15 03:09:10.880 ,7,0,9.,24.0,0.,24.0,0.,24.0,0.,24.0
1980-11-15 03:09:34.880 ,7,1,8.,24.0,0.,24.0,1.,24.0,0.,24.0
1980-11-15 03:09:58.880 ,7,0,12.,24.0,0.,24.0,0.,24.0,0.,24.0
1980-11-15 03:10:22.880 ,6,1,7.,24.0,0.,24.0,0.,24.0,0.,24.0
1980-11-15 03:10:46.880 ,6,0,0.,24.0,0.,24.0,0.,24.0,0.,24.0
1980-11-15 03:11:10.880 ,5,1,0.,24.0,0.,24.0,1.,24.0,0.,24.0
1980-11-15 03:11:34.880 ,5,0,0.,24.0,0.,24.0,0.,24.0,0.,24.0
1980-11-15 03:11:58.880 ,4,1,0.,24.0,0.,24.0,0.,24.0,0.,24.0
1980-11-15 03:12:22.880 ,4,0,0.,24.0,0.,24.0,2.,24.0,0.,24.0
1980-11-15 03:12:46.880 ,3,1,0.,24.0,0.,24.0,1.,24.0,0.,24.0
1980-11-15 03:13:10.880 ,3,0,0.,24.0,0.,24.0,1.,24.0,0.,24.0
1980-11-15 03:13:34.880 ,2,1,0.,24.0,0.,24.0,0.,24.0,0.,24.0
1980-11-15 03:13:58.880 ,2,0,0.,24.0,0.,24.0,0.,24.0,0.,24.0
1980-11-15 03:14:22.880 ,1,1,0.,24.0,0.,24.0,0.,24.0,0.,24.0
1980-11-15 03:14:46.880 ,1,0,0.,24.0,0.,24.0,0.,24.0,0.,24.0
1980-11-15 03:15:10.880 ,0,1,0.,24.0,0.,24.0,0.,24.0,0.,24.0
1980-11-15 03:15:34.880 ,0,0,0.,24.0,0.,24.0,1.,24.0,0.,24.0
1980-11-15 03:15:58.880 ,0,1,0.,24.0,0.,24.0,0.,24.0,0.,24.0
1980-11-15 03:16:22.880 ,0,0,0.,24.0,0.,24.0,0.,24.0,0.,24.0
1980-11-15 03:16:46.880 ,1,1,0.,24.0,0.,24.0,0.,24.0,0.,24.0
1980-11-15 03:17:10.880 ,1,0,0.,24.0,0.,24.0,0.,24.0,0.,24.0
1980-11-15 03:17:34.880 ,2,1,0.,24.0,0.,24.0,0.,24.0,0.,24.0
1980-11-15 03:17:58.880 ,2,0,0.,24.0,0.,24.0,1.,24.0,0.,24.0
1980-11-15 03:18:22.880 ,3,1,0.,24.0,0.,24.0,0.,24.0,0.,24.0
1980-11-15 03:18:46.880 ,3,0,0.,24.0,0.,24.0,0.,24.0,0.,24.0
1980-11-15 03:19:10.880 ,4,1,0.,24.0,0.,24.0,0.,24.0,0.,24.0
1980-11-15 03:19:34.880 ,4,0,0.,24.0,0.,24.0,1.,24.0,0.,24.0
1980-11-15 03:19:58.880 ,5,1,0.,24.0,0.,24.0,0.,24.0,0.,24.0
1980-11-15 03:20:22.880 ,5,0,0.,24.0,0.,24.0,1.,24.0,0.,24.0
1980-11-15 03:20:46.880 ,6,1,0.,24.0,0.,24.0,0.,24.0,0.,24.0
1980-11-15 03:21:10.880 ,6,0,0.,24.0,0.,24.0,0.,24.0,0.,24.0
1980-11-15 03:21:34.880 ,7,1,3.,24.0,0.,24.0,0.,24.0,0.,24.0
1980-11-15 03:21:58.880 ,7,0,9.,24.0,0.,24.0,1.,24.0,0.,24.0
1980-11-15 03:22:22.880 ,7,1,11.,24.0,0.,24.0,2.,24.0,0.,24.0
1980-11-15 03:22:46.880 ,7,0,15.,24.0,0.,24.0,0.,24.0,0.,24.0
1980-11-15 03:23:10.880 ,6,1,2.,24.0,0.,24.0,0.,24.0,0.,24.0
1980-11-15 03:23:34.880 ,6,0,0.,24.0,0.,24.0,0.,24.0,0.,24.0
1980-11-15 03:23:58.880 ,5,1,1.,24.0,0.,24.0,0.,24.0,0.,24.0
1980-11-15 03:24:22.880 ,5,0,0.,24.0,0.,24.0,0.,24.0,0.,24.0
1980-11-15 03:24:46.880 ,4,1,0.,24.0,0.,24.0,0.,24.0,0.,24.0
1980-11-15 03:25:10.880 ,4,0,0.,24.0,0.,24.0,0.,24.0,0.,24.0
1980-11-15 03:25:34.880 ,3,1,0.,24.0,0.,24.0,0.,24.0,0.,24.0
1980-11-15 03:25:58.880 ,3,0,0.,24.0,0.,24.0,0.,24.0,0.,24.0
1980-11-15 03:26:22.880 ,2,1,0.,24.0,0.,24.0,1.,24.0,0.,24.0
1980-11-15 03:26:46.880 ,2,0,0.,24.0,0.,24.0,0.,24.0,0.,24.0
1980-11-15 03:27:10.880 ,1,1,0.,24.0,0.,24.0,1.,24.0,0.,24.0
1980-11-15 03:27:34.880 ,1,0,0.,24.0,0.,24.0,1.,24.0,0.,24.0
1980-11-15 03:27:58.880 ,0,1,0.,24.0,0.,24.0,0.,24.0,0.,24.0
1980-11-15 03:28:22.880 ,0,0,0.,24.0,0.,24.0,0.,24.0,0.,24.0
1980-11-15 03:28:46.880 ,0,1,0.,24.0,0.,24.0,0.,24.0,0.,24.0
1980-11-15 03:29:10.880 ,0,0,0.,24.0,0.,24.0,0.,24.0,0.,24.0
1980-11-15 03:29:34.880 ,1,1,0.,24.0,0.,24.0,1.,24.0,0.,24.0
1980-11-15 03:29:58.880 ,1,0,0.,24.0,0.,24.0,0.,24.0,0.,24.0
1980-11-15 03:30:22.880 ,2,1,0.,24.0,0.,24.0,1.,24.0,0.,24.0
1980-11-15 03:30:46.880 ,2,0,0.,24.0,0.,24.0,2.,24.0,0.,24.0
1980-11-15 03:31:10.880 ,3,1,0.,24.0,0.,24.0,0.,24.0,0.,24.0
1980-11-15 03:31:34.880 ,3,0,0.,24.0,0.,24.0,0.,24.0,0.,24.0
1980-11-15 03:31:58.880 ,4,1,0.,24.0,0.,24.0,1.,24.0,0.,24.0
1980-11-15 03:32:22.880 ,4,0,0.,24.0,0.,24.0,0.,24.0,0.,24.0
1980-11-15 03:32:46.880 ,5,1,0.,24.0,0.,24.0,1.,24.0,0.,24.0
1980-11-15 03:33:10.880 ,5,0,0.,24.0,0.,24.0,0.,24.0,0.,24.0
1980-11-15 03:33:34.880 ,6,1,0.,24.0,0.,24.0,0.,24.0,0.,24.0
1980-11-15 03:33:58.880 ,6,0,0.,24.0,0.,24.0,0.,24.0,0.,24.0
1980-11-15 03:34:22.880 ,7,1,3.,24.0,0.,24.0,1.,24.0,0.,24.0
1980-11-15 03:34:46.880 ,7,0,18.,24.0,0.,24.0,0.,24.0,0.,24.0
1980-11-15 03:35:10.880 ,7,1,7.,24.0,0.,24.0,0.,24.0,0.,24.0
1980-11-15 03:35:34.880 ,7,0,8.,24.0,0.,24.0,0.,24.0,0.,24.0
1980-11-15 03:35:58.880 ,6,1,6.,24.0,0.,24.0,0.,24.0,0.,24.0
1980-11-15 03:36:22.880 ,6,0,0.,24.0,0.,24.0,0.,24.0,0.,24.0
1980-11-15 03:36:46.880 ,5,1,0.,24.0,0.,24.0,1.,24.0,0.,24.0
1980-11-15 03:37:10.880 ,5,0,0.,24.0,0.,24.0,2.,24.0,0.,24.0
1980-11-15 03:37:34.880 ,4,1,0.,24.0,0.,24.0,0.,24.0,0.,24.0
1980-11-15 03:37:58.880 ,4,0,0.,24.0,0.,24.0,0.,24.0,0.,24.0
1980-11-15 03:38:22.880 ,3,1,0.,24.0,0.,24.0,1.,24.0,0.,24.0
1980-11-15 03:38:46.880 ,3,0,0.,24.0,0.,24.0,0.,24.0,0.,24.0
1980-11-15 03:39:10.880 ,2,1,0.,24.0,0.,24.0,0.,24.0,0.,24.0
1980-11-15 03:39:34.880 ,2,0,0.,24.0,0.,24.0,0.,24.0,0.,24.0
1980-11-15 03:39:58.880 ,1,1,0.,24.0,0.,24.0,0.,24.0,0.,24.0
1980-11-15 03:40:22.880 ,1,0,0.,24.0,0.,24.0,3.,24.0,0.,24.0
1980-11-15 03:40:46.880 ,0,1,0.,24.0,0.,24.0,0.,24.0,0.,24.0
1980-11-15 03:41:10.880 ,0,0,0.,24.0,0.,24.0,0.,24.0,0.,24.0
1980-11-15 03:41:34.880 ,0,1,0.,24.0,0.,24.0,1.,24.0,0.,24.0
1980-11-15 03:41:58.880 ,0,0,1.,24.0,0.,24.0,1.,24.0,0.,24.0
1980-11-15 03:42:22.880 ,1,1,0.,24.0,0.,24.0,0.,24.0,0.,24.0
1980-11-15 03:42:46.880 ,1,0,0.,24.0,0.,24.0,0.,24.0,0.,24.0
1980-11-15 03:43:10.880 ,2,1,0.,24.0,0.,24.0,1.,24.0,0.,24.0
1980-11-15 03:43:34.880 ,2,0,0.,24.0,0.,24.0,2.,24.0,0.,24.0
1980-11-15 03:43:58.880 ,3,1,0.,24.0,0.,24.0,0.,24.0,0.,24.0
1980-11-15 03:44:22.880 ,3,0,0.,24.0,0.,24.0,0.,24.0,0.,24.0
1980-11-15 03:44:46.880 ,4,1,0.,24.0,0.,24.0,0.,24.0,0.,24.0
1980-11-15 03:45:10.880 ,4,0,0.,24.0,0.,24.0,2.,24.0,0.,24.0
1980-11-15 03:45:34.880 ,5,1,0.,24.0,0.,24.0,0.,24.0,0.,24.0
1980-11-15 03:45:58.880 ,5,0,0.,24.0,0.,24.0,0.,24.0,0.,24.0
1980-11-15 03:46:22.880 ,6,1,0.,24.0,0.,24.0,0.,24.0,0.,24.0
1980-11-15 03:46:46.880 ,6,0,0.,24.0,0.,24.0,0.,24.0,0.,24.0
1980-11-15 03:47:10.880 ,7,1,4.,24.0,0.,24.0,1.,24.0,0.,24.0
1980-11-15 03:47:34.880 ,7,0,11.,24.0,0.,24.0,1.,24.0,0.,24.0
1980-11-15 03:47:58.880 ,7,1,6.,24.0,0.,24.0,2.,24.0,0.,24.0
1980-11-15 03:48:22.880 ,7,0,4.,24.0,0.,24.0,0.,24.0,0.,24.0
1980-11-15 03:48:46.880 ,6,1,11.,24.0,0.,24.0,1.,24.0,0.,24.0
1980-11-15 03:49:10.880 ,6,0,0.,24.0,0.,24.0,2.,24.0,0.,24.0
1980-11-15 03:49:34.880 ,5,1,0.,24.0,0.,24.0,2.,24.0,0.,24.0
1980-11-15 03:49:58.880 ,5,0,0.,24.0,0.,24.0,1.,24.0,0.,24.0
1980-11-15 03:50:22.880 ,4,1,0.,24.0,0.,24.0,0.,24.0,0.,24.0
1980-11-15 03:50:46.880 ,4,0,0.,24.0,0.,24.0,0.,24.0,0.,24.0
1980-11-15 03:51:10.880 ,3,1,0.,24.0,0.,24.0,0.,24.0,0.,24.0
1980-11-15 03:51:34.880 ,3,0,0.,24.0,0.,24.0,1.,24.0,0.,24.0
1980-11-15 03:51:58.880 ,2,1,0.,24.0,0.,24.0,1.,24.0,0.,24.0
1980-11-15 03:52:22.880 ,2,0,0.,24.0,0.,24.0,1.,24.0,0.,24.0
1980-11-15 03:52:46.880 ,1,1,0.,24.0,0.,24.0,1.,24.0,0.,24.0
1980-11-15 03:53:10.880 ,1,0,0.,24.0,0.,24.0,1.,24.0,0.,24.0
1980-11-15 03:53:34.880 ,0,1,0.,24.0,0.,24.0,0.,24.0,0.,24.0
1980-11-15 03:53:58.880 ,0,0,0.,24.0,0.,24.0,0.,24.0,0.,24.0
1980-11-15 03:54:22.880 ,0,1,0.,24.0,0.,24.0,0.,24.0,0.,24.0
1980-11-15 03:54:46.880 ,0,0,0.,24.0,0.,24.0,1.,24.0,0.,24.0
1980-11-15 03:55:28.880 ,0,0,,0,,0,,0,,0
1980-11-15 03:55:34.880 ,0,0,0.,24.0,0.,24.0,0.,24.0,0.,24.0
1980-11-15 03:55:58.880 ,2,1,0.,24.0,0.,24.0,0.,24.0,0.,24.0
1980-11-15 03:56:22.880 ,2,0,0.,24.0,0.,24.0,0.,24.0,0.,24.0
1980-11-15 03:56:46.880 ,3,1,0.,24.0,0.,24.0,2.,24.0,0.,24.0
1980-11-15 03:57:10.880 ,3,0,1.,24.0,0.,24.0,2.,24.0,0.,24.0
1980-11-15 03:57:34.880 ,4,1,0.,24.0,0.,24.0,1.,24.0,0.,24.0
1980-11-15 03:57:58.880 ,4,0,0.,24.0,0.,24.0,0.,24.0,0.,24.0
1980-11-15 03:58:22.880 ,5,1,0.,24.0,0.,24.0,1.,24.0,0.,24.0
1980-11-15 03:58:46.880 ,5,0,0.,24.0,0.,24.0,0.,24.0,0.,24.0
1980-11-15 03:59:10.880 ,6,1,0.,24.0,0.,24.0,0.,24.0,0.,24.0
1980-11-15 03:59:34.880 ,6,0,0.,24.0,0.,24.0,1.,24.0,0.,24.0
1980-11-15 03:59:58.880 ,7,1,2.,24.0,0.,24.0,0.,24.0,0.,24.0
1980-11-15 04:00:22.880 ,7,0,13.,24.0,0.,24.0,0.,24.0,0.,24.0
1980-11-15 04:00:46.880 ,7,1,8.,24.0,0.,24.0,0.,24.0,0.,24.0
1980-11-15 04:01:10.880 ,7,0,10.,24.0,0.,24.0,0.,24.0,0.,24.0
1980-11-15 04:01:34.880 ,6,1,11.,24.0,0.,24.0,0.,24.0,0.,24.0
1980-11-15 04:01:58.880 ,6,0,0.,24.0,0.,24.0,0.,24.0,0.,24.0
1980-11-15 04:02:22.880 ,5,1,0.,24.0,0.,24.0,0.,24.0,0.,24.0
1980-11-15 04:02:46.880 ,5,0,0.,24.0,0.,24.0,2.,24.0,0.,24.0
1980-11-15 04:03:10.880 ,4,1,0.,24.0,0.,24.0,0.,24.0,0.,24.0
1980-11-15 04:03:34.880 ,0,0,0.,24.0,0.,24.0,1.,24.0,0.,24.0
1980-11-15 04:04:27.080 ,0,0,0.,24.0,0.,24.0,1.,24.0,0.,24.0
1980-11-15 04:04:46.880 ,2,1,0.,24.0,0.,24.0,2.,24.0,0.,24.0
1980-11-15 04:05:10.880 ,2,0,0.,24.0,0.,24.0,2.,24.0,0.,24.0
1980-11-15 04:05:34.880 ,1,1,0.,24.0,0.,24.0,1.,24.0,0.,24.0
1980-11-15 04:05:58.880 ,1,0,0.,24.0,0.,24.0,1.,24.0,0.,24.0
1980-11-15 04:06:22.880 ,0,1,0.,24.0,0.,24.0,0.,24.0,0.,24.0
1980-11-15 04:06:46.880 ,0,0,0.,24.0,0.,24.0,0.,24.0,0.,24.0
1980-11-15 04:07:10.880 ,0,1,0.,24.0,0.,24.0,0.,24.0,0.,24.0
1980-11-15 04:07:34.880 ,0,0,0.,24.0,0.,24.0,0.,24.0,0.,24.0
1980-11-15 04:07:58.880 ,1,1,0.,24.0,0.,24.0,1.,24.0,0.,24.0
1980-11-15 04:08:22.880 ,1,0,0.,24.0,0.,24.0,0.,24.0,0.,24.0
1980-11-15 04:08:46.880 ,2,1,0.,24.0,0.,24.0,0.,24.0,0.,24.0
1980-11-15 04:09:10.880 ,2,0,0.,24.0,0.,24.0,0.,24.0,0.,24.0
1980-11-15 04:09:34.880 ,3,1,0.,24.0,0.,24.0,1.,24.0,0.,24.0
1980-11-15 04:09:58.880 ,3,0,0.,24.0,0.,24.0,0.,24.0,0.,24.0
1980-11-15 04:10:22.880 ,4,1,0.,24.0,0.,24.0,1.,24.0,0.,24.0
1980-11-15 04:10:46.880 ,4,0,0.,24.0,0.,24.0,0.,24.0,0.,24.0
1980-11-15 04:11:10.880 ,5,1,0.,24.0,0.,24.0,1.,24.0,0.,24.0
1980-11-15 04:11:34.880 ,5,0,0.,24.0,0.,24.0,0.,24.0,0.,24.0
1980-11-15 04:11:58.880 ,6,1,0.,24.0,0.,24.0,0.,24.0,0.,24.0
1980-11-15 04:12:22.880 ,6,0,0.,24.0,0.,24.0,1.,24.0,0.,24.0
1980-11-15 04:12:46.880 ,7,1,3.,24.0,0.,24.0,0.,24.0,0.,24.0
1980-11-15 04:13:10.880 ,7,0,10.,24.0,0.,24.0,0.,24.0,0.,24.0
1980-11-15 04:13:34.880 ,7,1,12.,24.0,0.,24.0,0.,24.0,0.,24.0
1980-11-15 04:13:58.880 ,7,0,17.,24.0,0.,24.0,1.,24.0,0.,24.0
1980-11-15 04:14:22.880 ,6,1,8.,24.0,0.,24.0,0.,24.0,0.,24.0
1980-11-15 04:14:46.880 ,6,0,0.,24.0,0.,24.0,0.,24.0,0.,24.0
1980-11-15 04:15:10.880 ,5,1,0.,24.0,0.,24.0,0.,24.0,0.,24.0
1980-11-15 04:15:34.880 ,5,0,0.,24.0,0.,24.0,0.,24.0,0.,24.0
1980-11-15 04:15:58.880 ,4,1,0.,24.0,0.,24.0,1.,24.0,0.,24.0
1980-11-15 04:16:22.880 ,4,0,0.,24.0,0.,24.0,0.,24.0,0.,24.0
1980-11-15 04:16:46.880 ,3,1,0.,24.0,0.,24.0,0.,24.0,0.,24.0
1980-11-15 04:17:10.880 ,3,0,0.,24.0,0.,24.0,1.,24.0,0.,24.0
1980-11-15 04:17:34.880 ,2,1,0.,24.0,0.,24.0,1.,24.0,0.,24.0
1980-11-15 04:17:58.880 ,2,0,0.,24.0,0.,24.0,1.,24.0,0.,24.0
1980-11-15 04:18:22.880 ,1,1,0.,24.0,0.,24.0,1.,24.0,0.,24.0
1980-11-15 04:18:46.880 ,1,0,0.,24.0,0.,24.0,1.,24.0,0.,24.0
1980-11-15 04:19:10.880 ,0,1,0.,24.0,0.,24.0,0.,24.0,0.,24.0
1980-11-15 04:19:34.880 ,0,0,0.,24.0,0.,24.0,0.,24.0,0.,24.0
1980-11-15 04:19:58.880 ,0,1,0.,24.0,0.,24.0,0.,24.0,0.,24.0
1980-11-15 04:20:22.880 ,0,0,0.,24.0,0.,24.0,1.,24.0,0.,24.0
1980-11-15 04:20:46.880 ,1,1,0.,24.0,0.,24.0,0.,24.0,0.,24.0
1980-11-15 04:21:10.880 ,1,0,0.,24.0,0.,24.0,0.,24.0,0.,24.0
1980-11-15 04:21:34.880 ,2,1,0.,24.0,0.,24.0,1.,24.0,0.,24.0
1980-11-15 04:21:58.880 ,0,0,0.,24.0,0.,24.0,0.,24.0,0.,24.0
1980-11-15 04:23:35.480 ,0,0,0.,24.0,0.,24.0,0.,24.0,0.,24.0
1980-11-15 04:23:58.880 ,5,1,0.,24.0,0.,24.0,0.,24.0,0.,24.0
1980-11-15 04:24:22.880 ,5,0,0.,24.0,0.,24.0,1.,24.0,0.,24.0
1980-11-15 04:24:46.880 ,6,1,0.,24.0,1.,24.0,0.,24.0,0.,24.0
1980-11-15 04:25:10.880 ,6,0,0.,24.0,0.,24.0,0.,24.0,0.,24.0
1980-11-15 04:25:34.880 ,7,1,5.,24.0,0.,24.0,0.,24.0,0.,24.0
1980-11-15 04:25:58.880 ,7,0,9.,24.0,0.,24.0,0.,24.0,0.,24.0
1980-11-15 04:26:22.880 ,7,1,7.,24.0,0.,24.0,1.,24.0,0.,24.0
1980-11-15 04:26:46.880 ,7,0,7.,24.0,0.,24.0,1.,24.0,0.,24.0
1980-11-15 04:27:10.880 ,6,1,7.,24.0,0.,24.0,1.,24.0,0.,24.0
1980-11-15 04:27:34.880 ,6,0,0.,24.0,0.,24.0,0.,24.0,0.,24.0
1980-11-15 04:27:58.880 ,5,1,0.,24.0,0.,24.0,0.,24.0,0.,24.0
1980-11-15 04:28:22.880 ,5,0,0.,24.0,0.,24.0,0.,24.0,0.,24.0
1980-11-15 04:28:46.880 ,4,1,0.,24.0,0.,24.0,0.,24.0,0.,24.0
1980-11-15 04:29:10.880 ,4,0,0.,24.0,0.,24.0,0.,24.0,0.,24.0
1980-11-15 04:29:34.880 ,3,1,0.,24.0,0.,24.0,2.,24.0,0.,24.0
1980-11-15 04:29:58.880 ,3,0,0.,24.0,0.,24.0,0.,24.0,0.,24.0
1980-11-15 04:30:22.880 ,2,1,0.,24.0,0.,24.0,1.,24.0,0.,24.0
1980-11-15 04:30:46.880 ,2,0,0.,24.0,0.,24.0,1.,24.0,0.,24.0
1980-11-15 04:31:10.880 ,1,1,0.,24.0,0.,24.0,0.,24.0,0.,24.0
1980-11-15 04:31:34.880 ,1,0,0.,24.0,0.,24.0,0.,24.0,0.,24.0
1980-11-15 04:31:58.880 ,0,1,0.,24.0,0.,24.0,0.,24.0,0.,24.0
1980-11-15 04:32:22.880 ,0,0,0.,24.0,0.,24.0,2.,24.0,0.,24.0
1980-11-15 04:32:46.880 ,0,1,0.,24.0,0.,24.0,0.,24.0,0.,24.0
1980-11-15 04:33:10.880 ,0,0,0.,24.0,0.,24.0,0.,24.0,0.,24.0
1980-11-15 04:33:34.880 ,1,1,0.,24.0,0.,24.0,0.,24.0,0.,24.0
1980-11-15 04:33:58.880 ,1,0,0.,24.0,0.,24.0,0.,24.0,0.,24.0
1980-11-15 04:34:22.880 ,2,1,0.,24.0,0.,24.0,1.,24.0,0.,24.0
1980-11-15 04:34:46.880 ,2,0,0.,24.0,0.,24.0,1.,24.0,0.,24.0
1980-11-15 04:35:10.880 ,3,1,0.,24.0,0.,24.0,0.,24.0,0.,24.0
1980-11-15 04:35:34.880 ,3,0,0.,24.0,0.,24.0,0.,24.0,0.,24.0
1980-11-15 04:35:58.880 ,4,1,0.,24.0,0.,24.0,1.,24.0,0.,24.0
1980-11-15 04:36:22.880 ,4,0,0.,24.0,0.,24.0,0.,24.0,0.,24.0
1980-11-15 04:36:46.880 ,5,1,0.,24.0,0.,24.0,0.,24.0,0.,24.0
1980-11-15 04:37:10.880 ,5,0,0.,24.0,0.,24.0,1.,24.0,0.,24.0
1980-11-15 04:37:34.880 ,6,1,0.,24.0,0.,24.0,0.,24.0,0.,24.0
1980-11-15 04:37:58.880 ,6,0,,0,,0,,0,,0
1980-11-15 04:38:22.880 ,7,1,3.,24.0,0.,24.0,0.,24.0,0.,24.0
1980-11-15 04:38:46.880 ,7,0,7.,24.0,0.,24.0,1.,24.0,0.,24.0
1980-11-15 04:39:10.880 ,7,1,8.,24.0,0.,24.0,0.,24.0,0.,24.0
1980-11-15 04:39:34.880 ,7,0,13.,24.0,0.,24.0,1.,24.0,0.,24.0
1980-11-15 04:39:58.880 ,6,1,3.,24.0,0.,24.0,0.,24.0,0.,24.0
1980-11-15 04:40:22.880 ,6,0,0.,24.0,0.,24.0,0.,24.0,0.,24.0
1980-11-15 04:40:46.880 ,5,1,0.,24.0,0.,24.0,0.,24.0,0.,24.0
1980-11-15 04:41:10.880 ,5,0,0.,24.0,0.,24.0,1.,24.0,0.,24.0
1980-11-15 04:41:34.880 ,4,1,1.,24.0,0.,24.0,0.,24.0,0.,24.0
1980-11-15 04:41:58.880 ,4,0,0.,24.0,0.,24.0,0.,24.0,0.,24.0
1980-11-15 04:42:22.880 ,3,1,1.,24.0,0.,24.0,1.,24.0,0.,24.0
1980-11-15 04:42:46.880 ,3,0,0.,24.0,0.,24.0,1.,24.0,0.,24.0
1980-11-15 04:43:10.880 ,2,1,0.,24.0,0.,24.0,0.,24.0,0.,24.0
1980-11-15 04:43:34.880 ,2,0,0.,24.0,0.,24.0,0.,24.0,0.,24.0
1980-11-15 04:43:58.880 ,1,1,0.,24.0,0.,24.0,0.,24.0,0.,24.0
1980-11-15 04:44:22.880 ,1,0,0.,24.0,0.,24.0,0.,24.0,0.,24.0
1980-11-15 04:44:46.880 ,0,1,0.,24.0,0.,24.0,1.,24.0,0.,24.0
1980-11-15 04:45:10.880 ,0,0,0.,24.0,0.,24.0,1.,24.0,0.,24.0
1980-11-15 04:45:34.880 ,0,1,0.,24.0,0.,24.0,1.,24.0,0.,24.0
1980-11-15 04:45:58.880 ,0,0,0.,24.0,0.,24.0,0.,24.0,0.,24.0
1980-11-15 04:46:22.880 ,1,1,0.,24.0,0.,24.0,0.,24.0,0.,24.0
1980-11-15 04:46:46.880 ,1,0,0.,24.0,0.,24.0,0.,24.0,0.,24.0
1980-11-15 04:47:10.880 ,2,1,0.,24.0,0.,24.0,1.,24.0,0.,24.0
1980-11-15 04:47:34.880 ,2,0,0.,24.0,0.,24.0,0.,24.0,0.,24.0
1980-11-15 04:47:58.880 ,3,1,0.,24.0,0.,24.0,0.,24.0,0.,24.0
1980-11-15 04:48:22.880 ,3,0,0.,24.0,0.,24.0,0.,24.0,0.,24.0
1980-11-15 04:48:46.880 ,4,1,0.,24.0,0.,24.0,1.,24.0,0.,24.0
1980-11-15 04:49:10.880 ,4,0,0.,24.0,0.,24.0,0.,24.0,0.,24.0
1980-11-15 04:49:34.880 ,5,1,0.,24.0,0.,24.0,0.,24.0,0.,24.0
1980-11-15 04:49:58.880 ,5,0,0.,24.0,0.,24.0,0.,24.0,0.,24.0
1980-11-15 04:50:22.880 ,6,1,0.,24.0,0.,24.0,0.,24.0,0.,24.0
1980-11-15 04:50:46.880 ,6,0,1.,24.0,0.,24.0,1.,24.0,0.,24.0
1980-11-15 04:51:10.880 ,7,1,3.,24.0,0.,24.0,0.,24.0,0.,24.0
1980-11-15 04:51:34.880 ,7,0,10.,24.0,0.,24.0,1.,24.0,0.,24.0
1980-11-15 04:51:58.880 ,7,1,9.,24.0,0.,24.0,0.,24.0,0.,24.0
1980-11-15 04:52:22.880 ,7,0,10.,24.0,0.,24.0,1.,24.0,0.,24.0
1980-11-15 04:52:46.880 ,6,1,9.,24.0,0.,24.0,0.,24.0,0.,24.0
1980-11-15 04:53:10.880 ,6,0,1.,24.0,0.,24.0,1.,24.0,0.,24.0
1980-11-15 04:53:34.880 ,5,1,0.,24.0,0.,24.0,0.,24.0,0.,24.0
1980-11-15 04:53:58.880 ,5,0,0.,24.0,0.,24.0,1.,24.0,0.,24.0
1980-11-15 04:54:22.880 ,4,1,0.,24.0,0.,24.0,1.,24.0,0.,24.0
1980-11-15 04:54:46.880 ,4,0,0.,24.0,0.,24.0,0.,24.0,0.,24.0
1980-11-15 04:55:10.880 ,3,1,0.,24.0,0.,24.0,0.,24.0,0.,24.0
1980-11-15 04:55:34.880 ,3,0,0.,24.0,0.,24.0,0.,24.0,0.,24.0
1980-11-15 04:55:58.880 ,2,1,0.,24.0,0.,24.0,0.,24.0,0.,24.0
1980-11-15 04:56:22.880 ,2,0,0.,24.0,0.,24.0,1.,24.0,0.,24.0
1980-11-15 04:56:46.880 ,1,1,0.,24.0,0.,24.0,0.,24.0,0.,24.0
1980-11-15 04:57:10.880 ,1,0,0.,24.0,0.,24.0,0.,24.0,0.,24.0
1980-11-15 04:57:34.880 ,0,1,0.,24.0,0.,24.0,0.,24.0,0.,24.0
1980-11-15 04:57:58.880 ,0,0,1.,24.0,0.,24.0,0.,24.0,0.,24.0
1980-11-15 04:58:22.880 ,0,1,0.,24.0,0.,24.0,1.,24.0,0.,24.0
1980-11-15 04:58:46.880 ,0,0,0.,24.0,1.,24.0,0.,24.0,0.,24.0
1980-11-15 04:59:10.880 ,1,1,0.,24.0,0.,24.0,0.,24.0,0.,24.0
1980-11-15 04:59:34.880 ,1,0,0.,24.0,0.,24.0,0.,24.0,0.,24.0
1980-11-15 04:59:58.880 ,2,1,0.,24.0,0.,24.0,0.,24.0,0.,24.0
1980-11-15 05:00:22.880 ,2,0,0.,24.0,0.,24.0,0.,24.0,0.,24.0
1980-11-15 05:00:46.880 ,3,1,0.,24.0,0.,24.0,1.,24.0,0.,24.0
1980-11-15 05:01:10.880 ,3,0,0.,24.0,0.,24.0,1.,24.0,0.,24.0
1980-11-15 05:01:34.880 ,4,1,0.,24.0,0.,24.0,0.,24.0,0.,24.0
1980-11-15 05:01:58.880 ,4,0,1.,24.0,0.,24.0,0.,24.0,0.,24.0
1980-11-15 05:02:22.880 ,5,1,0.,24.0,0.,24.0,0.,24.0,0.,24.0
1980-11-15 05:02:46.880 ,5,0,0.,24.0,0.,24.0,0.,24.0,0.,24.0
1980-11-15 05:03:10.880 ,6,1,0.,24.0,0.,24.0,0.,24.0,0.,24.0
1980-11-15 05:03:34.880 ,6,0,0.,24.0,0.,24.0,2.,24.0,0.,24.0
1980-11-15 05:03:58.880 ,7,1,1.,24.0,0.,24.0,1.,24.0,0.,24.0
1980-11-15 05:04:22.880 ,7,0,11.,24.0,0.,24.0,0.,24.0,0.,24.0
1980-11-15 05:04:46.880 ,7,1,8.,24.0,0.,24.0,1.,24.0,0.,24.0
1980-11-15 05:05:10.880 ,7,0,9.,24.0,0.,24.0,0.,24.0,0.,24.0
1980-11-15 05:05:34.880 ,6,1,9.,24.0,0.,24.0,1.,24.0,0.,24.0
1980-11-15 05:05:58.880 ,6,0,0.,24.0,0.,24.0,0.,24.0,0.,24.0
1980-11-15 05:06:22.880 ,5,1,0.,24.0,0.,24.0,1.,24.0,0.,24.0
1980-11-15 05:06:46.880 ,5,0,0.,24.0,0.,24.0,2.,24.0,0.,24.0
1980-11-15 05:07:10.880 ,4,1,0.,24.0,0.,24.0,1.,24.0,0.,24.0
1980-11-15 05:07:34.880 ,4,0,0.,24.0,0.,24.0,0.,24.0,0.,24.0
1980-11-15 05:07:58.880 ,3,1,0.,24.0,0.,24.0,0.,24.0,0.,24.0
1980-11-15 05:08:22.880 ,3,0,0.,24.0,0.,24.0,0.,24.0,0.,24.0
1980-11-15 05:08:46.880 ,2,1,0.,24.0,0.,24.0,0.,24.0,0.,24.0
1980-11-15 05:09:10.880 ,2,0,0.,24.0,0.,24.0,0.,24.0,0.,24.0
1980-11-15 05:10:22.880 ,0,0,0.,24.0,0.,24.0,1.,24.0,0.,24.0
1980-11-15 05:10:46.880 ,0,0,0.,24.0,0.,24.0,3.,24.0,0.,24.0
1980-11-15 05:11:10.880 ,0,1,0.,24.0,0.,24.0,0.,24.0,0.,24.0
1980-11-15 05:11:34.880 ,0,0,0.,24.0,0.,24.0,0.,24.0,0.,24.0
1980-11-15 05:11:58.880 ,1,1,0.,24.0,0.,24.0,1.,24.0,0.,24.0
1980-11-15 05:12:22.880 ,1,0,0.,24.0,0.,24.0,0.,24.0,0.,24.0
1980-11-15 05:12:46.880 ,2,1,0.,24.0,0.,24.0,0.,24.0,0.,24.0
1980-11-15 05:13:10.880 ,2,0,0.,24.0,0.,24.0,0.,24.0,0.,24.0
1980-11-15 05:13:34.880 ,3,1,0.,24.0,0.,24.0,1.,24.0,0.,24.0
1980-11-15 05:13:58.880 ,3,0,0.,24.0,0.,24.0,1.,24.0,0.,24.0
1980-11-15 05:14:22.880 ,4,1,0.,24.0,0.,24.0,0.,24.0,0.,24.0
1980-11-15 05:14:46.880 ,4,0,0.,24.0,0.,24.0,0.,24.0,0.,24.0
1980-11-15 05:15:10.880 ,5,1,0.,24.0,0.,24.0,1.,24.0,0.,24.0
1980-11-15 05:15:34.880 ,5,0,0.,24.0,0.,24.0,1.,24.0,0.,24.0
1980-11-15 05:15:58.880 ,6,1,0.,24.0,0.,24.0,2.,24.0,0.,24.0
1980-11-15 05:16:22.880 ,6,0,0.,24.0,0.,24.0,0.,24.0,0.,24.0
1980-11-15 05:17:34.880 ,0,0,7.,24.0,0.,24.0,1.,24.0,0.,24.0
1980-11-15 05:17:58.880 ,0,0,10.,24.0,0.,24.0,0.,24.0,0.,24.0
1980-11-15 05:18:29.480 ,0,0,6.,24.0,0.,24.0,3.,24.0,0.,24.0
1980-11-15 05:18:46.880 ,0,0,0.,24.0,0.,24.0,0.,24.0,0.,24.0
1980-11-15 05:19:10.880 ,5,1,0.,24.0,0.,24.0,2.,24.0,0.,24.0
1980-11-15 05:19:34.880 ,5,0,0.,24.0,0.,24.0,0.,24.0,0.,24.0
1980-11-15 05:19:58.880 ,4,1,0.,24.0,0.,24.0,1.,24.0,0.,24.0
1980-11-15 05:20:22.880 ,4,0,0.,24.0,0.,24.0,1.,24.0,0.,24.0
1980-11-15 05:20:46.880 ,3,1,0.,24.0,0.,24.0,0.,24.0,0.,24.0
1980-11-15 05:21:10.880 ,3,0,0.,24.0,0.,24.0,1.,24.0,0.,24.0
1980-11-15 05:21:34.880 ,2,1,0.,24.0,0.,24.0,0.,24.0,0.,24.0
1980-11-15 05:21:58.880 ,2,0,0.,24.0,0.,24.0,0.,24.0,0.,24.0
1980-11-15 05:22:22.880 ,1,1,0.,24.0,0.,24.0,2.,24.0,0.,24.0
1980-11-15 05:22:46.880 ,1,0,0.,24.0,0.,24.0,0.,24.0,0.,24.0
1980-11-15 05:23:10.880 ,0,1,0.,24.0,0.,24.0,1.,24.0,0.,24.0
1980-11-15 05:23:34.880 ,0,0,0.,24.0,0.,24.0,0.,24.0,0.,24.0
1980-11-15 05:24:00.080 ,0,1,0.,24.0,0.,24.0,0.,24.0,0.,24.0
1980-11-15 05:24:22.880 ,0,0,0.,24.0,0.,24.0,0.,24.0,0.,24.0
1980-11-15 05:24:46.880 ,1,1,0.,24.0,0.,24.0,0.,24.0,0.,24.0
1980-11-15 05:25:10.880 ,1,0,0.,24.0,0.,24.0,1.,24.0,0.,24.0
1980-11-15 05:25:34.880 ,2,1,0.,24.0,0.,24.0,1.,24.0,0.,24.0
1980-11-15 05:25:58.880 ,2,0,0.,24.0,0.,24.0,2.,24.0,0.,24.0
1980-11-15 05:26:22.880 ,3,1,0.,24.0,0.,24.0,0.,24.0,0.,24.0
1980-11-15 05:26:46.880 ,3,0,0.,24.0,0.,24.0,0.,24.0,0.,24.0
1980-11-15 05:27:10.880 ,4,1,0.,24.0,0.,24.0,1.,24.0,0.,24.0
1980-11-15 05:27:34.880 ,4,0,0.,24.0,0.,24.0,1.,24.0,0.,24.0
1980-11-15 05:27:58.880 ,5,1,0.,24.0,0.,24.0,0.,24.0,0.,24.0
1980-11-15 05:28:22.880 ,5,0,0.,24.0,0.,24.0,1.,24.0,0.,24.0
1980-11-15 05:28:46.880 ,6,1,0.,24.0,0.,24.0,1.,24.0,0.,24.0
1980-11-15 05:29:10.880 ,6,0,0.,24.0,0.,24.0,1.,24.0,0.,24.0
1980-11-15 05:29:34.880 ,7,1,1.,24.0,0.,24.0,1.,24.0,0.,24.0
1980-11-15 05:29:58.880 ,7,0,6.,24.0,0.,24.0,2.,24.0,0.,24.0
1980-11-15 05:30:22.880 ,7,1,11.,24.0,0.,24.0,1.,24.0,0.,24.0
1980-11-15 05:30:46.880 ,7,0,9.,24.0,0.,24.0,0.,24.0,0.,24.0
1980-11-15 05:31:10.880 ,6,1,7.,24.0,0.,24.0,0.,24.0,0.,24.0
1980-11-15 05:31:34.880 ,6,0,0.,24.0,0.,24.0,0.,24.0,0.,24.0
1980-11-15 05:31:58.880 ,5,1,0.,24.0,0.,24.0,0.,24.0,0.,24.0
1980-11-15 05:32:22.880 ,5,0,0.,24.0,0.,24.0,1.,24.0,0.,24.0
1980-11-15 05:32:46.880 ,4,1,0.,24.0,0.,24.0,0.,24.0,0.,24.0
1980-11-15 05:33:10.880 ,4,0,0.,24.0,0.,24.0,1.,24.0,0.,24.0
1980-11-15 05:33:34.880 ,3,1,1.,24.0,0.,24.0,1.,24.0,0.,24.0
1980-11-15 05:33:58.880 ,3,0,0.,24.0,0.,24.0,1.,24.0,0.,24.0
1980-11-15 05:34:22.880 ,2,1,0.,24.0,0.,24.0,0.,24.0,0.,24.0
1980-11-15 05:34:46.880 ,2,0,0.,24.0,0.,24.0,2.,24.0,0.,24.0
1980-11-15 05:39:10.880 ,0,0,0.,24.0,0.,24.0,0.,24.0,0.,24.0
1980-11-15 05:39:34.880 ,0,0,0.,24.0,0.,24.0,0.,24.0,0.,24.0
1980-11-15 05:39:58.880 ,4,1,0.,24.0,0.,24.0,0.,24.0,0.,24.0
1980-11-15 05:40:22.880 ,4,0,0.,24.0,0.,24.0,1.,24.0,0.,24.0
1980-11-15 05:40:46.880 ,5,1,1.,24.0,0.,24.0,0.,24.0,0.,24.0
1980-11-15 05:41:10.880 ,5,0,0.,24.0,0.,24.0,0.,24.0,0.,24.0
1980-11-15 05:41:34.880 ,6,1,0.,24.0,0.,24.0,0.,24.0,0.,24.0